Location: Arbon
(43.0005°N, 0.7472°E)
Time: 10:30:21
(UTC+00:00)

Vanguard 3 - All Passes

Search period start: 30 November 2020 00:00
Search period end: 10 December 2020 00:00
Orbit: 508 x 3262 km, 33.3° (Epoch: 29 November)

Date Brightness Start Highest point End Pass type
(mag) Time Alt. Az. Time Alt. Az. Time Alt. Az.
30 Nov - 01:23:22 10° SW 01:27:15 17° SSW 01:32:26 10° SSE night (unlit)
30 Nov - 19:49:52 10° S 19:51:33 13° SSE 19:53:13 10° SE visible
30 Nov - 21:59:07 10° SW 22:02:12 23° S 22:05:58 10° ESE night (unlit)
01 Dec - 00:09:45 10° WSW 00:13:16 20° S 00:18:02 10° SE night (unlit)
01 Dec - 20:46:04 10° SW 20:48:47 19° S 20:51:38 10° SE night (unlit)
01 Dec - 22:56:26 10° SW 22:59:33 21° S 23:03:34 10° SE night (unlit)
02 Dec - 01:08:38 10° SW 01:10:58 12° SSW 01:13:42 10° S night (unlit)
02 Dec - 19:33:02 10° SSW 19:35:21 15° SSE 19:37:31 10° SE visible
02 Dec - 21:43:11 10° SW 21:46:03 21° S 21:49:21 10° SE night (unlit)
02 Dec - 23:54:25 10° SW 23:57:04 15° SSW 00:00:18 10° SSE night (unlit)
03 Dec - 18:20:17 10° S 18:21:47 11° SSE 18:23:11 10° SE visible
03 Dec - 20:29:49 10° SW 20:32:37 20° S 20:35:25 10° SE night (unlit)
03 Dec - 22:40:46 10° SW 22:43:24 17° S 22:46:31 10° SSE night (unlit)
04 Dec - 19:16:15 10° SW 19:19:10 18° S 19:21:45 10° SE visible
04 Dec - 21:27:13 10° SW 21:29:54 19° S 21:32:47 10° SE night (unlit)
04 Dec - 23:39:55 10° SSW 23:40:51 11° SSW 23:41:52 10° S night (unlit)
05 Dec - 18:02:33 10° SSW 18:05:36 15° S 18:08:07 10° SE visible
05 Dec - 20:13:29 10° SW 20:16:28 20° S 20:19:17 10° SE visible
05 Dec - 22:25:15 10° SW 22:27:13 14° SSW 22:29:23 10° SSE night (unlit)
06 Dec - 16:49:01 10° S 16:51:48 13° SSE 16:54:10 10° SE visible
06 Dec - 18:59:26 10° SW 19:03:00 21° S 19:05:57 10° SE visible
06 Dec - 21:11:11 10° SW 21:13:44 17° S 21:16:17 10° SSE night (unlit)
07 Dec - 15:37:03 10° SSE 15:37:46 10° SSE 15:38:27 10° SSE daylight
07 Dec - 17:45:08 10° SW 17:49:24 20° S 17:52:39 10° SE visible
07 Dec - 19:57:03 10° WSW 20:00:19 21° S 20:03:11 10° SE visible
07 Dec - 22:10:10 10° SSW 22:10:59 11° SSW 22:11:50 10° S night (unlit)
08 Dec - 16:30:44 10° SSW 16:35:34 18° SSE 16:39:10 10° SE daylight
08 Dec - 18:42:34 10° SW 18:46:51 24° S 18:50:07 10° SE visible
08 Dec - 20:55:08 10° SW 20:57:31 16° SSW 20:59:50 10° SSE night (unlit)
09 Dec - 15:16:40 10° SSW 15:21:26 15° SSE 15:25:09 10° SE daylight
09 Dec - 17:27:45 10° SW 17:33:12 25° S 17:37:01 10° ESE visible
09 Dec - 19:40:31 10° WSW 19:44:08 22° S 19:47:08 10° SE visible
